Regional Weather Roundup
Issued by NWS Mobile, AL

Home | Current Version | Previous Version | Text Only | Print | Product List | Glossary On
Versions: 1 2 3 4 5 6 7 8 9 10 11 12 13 14 15 16 17 18 19 20 21 22 23 24 25 26 27 28 29 30 31 32 33 34 35 36 37 38 39 40 41 42 43 44 45 46 47 48 49 50
000
ASUS44 KMOB 302110
RWRMOB
REGIONAL WEATHER ROUNDUP
NATIONAL WEATHER SERVICE MOBILE AL
300 PM CST FRI JAN 30 2015

NOTE: "FAIR" INDICATES FEW OR NO CLOUDS BELOW 12,000 FEET WITH NO
      SIGNIFICANT WEATHER AND/OR OBSTRUCTIONS TO VISIBILITY.

  * THESE STATIONS ARE PART OF THE UNIVERSITY OF SOUTH ALABAMA
    MESONET AND ARE NOT UNDER NWS OR FAA QUALITY CONTROL.

ALZ061>064-302200-
COASTAL ALABAMA

CITY           SKY/WX    TMP DP  RH WIND       PRES   REMARKS
MOBILE REG APT PTSUNNY   59  29  31 N13       30.30S
BROOKLEY FIELD PTSUNNY   61  31  32 N12       30.31R
USA CAMPUS*    NOT AVBL
DOG RIVER*     NOT AVBL


CITY           SKY/WX    TMP DP  RH WIND       PRES   REMARKS
MOUNT VERNON*  NOT AVBL
SARALAND*      NOT AVBL
BAY MINETTE*   NOT AVBL
LOXLEY*        NOT AVBL
ROBERTSDALE*   NOT AVBL
FAIRHOPE*        N/A    N/A N/A N/A NE9       30.28R
ELBERTA*         N/A    N/A N/A N/A N9        30.27S
FOLEY*         NOT AVBL
GRAND BAY*     NOT AVBL
DAUPHIN ISLND* NOT AVBL
BON SCOUR NWR* NOT AVBL
GULF SHORES    PTSUNNY   61  32  33 N9        30.27F

$$

ALZ051>060-302200-
INTERIOR SOUTHWEST AND SOUTH CENTRAL ALABAMA

CITY           SKY/WX    TMP DP  RH WIND       PRES   REMARKS
GREENVILLE     MOSUNNY   59  24  26 N13       30.28F
EVERGREEN      MOSUNNY   59  26  28 NE14      30.30S
CASTLEBERRY*   NOT AVBL
ATMORE*          N/A    N/A N/A N/A N14       30.30S
DIXIE*           N/A    N/A N/A N/A CALM      30.25F
ANDALUSIA/OPP  SUNNY     64  26  23 N14       30.27F
ANDALUSIA*       N/A    N/A N/A N/A N10       30.26F
FLORALA APT    MOSUNNY   61  28  28 N9        30.28S
FLORALA*         N/A    N/A N/A N/A VRB13     30.24S

$$

FLZ001>006-302200-
WESTERN FLORIDA PANHANDLE

CITY           SKY/WX    TMP DP  RH WIND       PRES   REMARKS
PENSACOLA      PTSUNNY   60  29  30 N10       30.27S
NAS PENSACOLA  PTSUNNY   63  29  27 N9        30.26S
MILTON         PTSUNNY   60  28  29 N13       30.27S
WHTNG S FIELD  PTSUNNY   62  29  28 N15       30.27S


CITY           SKY/WX    TMP DP  RH WIND       PRES   REMARKS
WALNUT HILL*   NOT AVBL
JAY*           NOT AVBL
DUKE FIELD     CLOUDY    60  28  29 N13       30.26S
CRESTVIEW      PTSUNNY   61  28  28 NE12G18   30.28S
VALPARAISO     PTSUNNY   63  28  27 NE10      30.25S
DESTIN         PTSUNNY   63  32  31 N10       30.25S

$$

MSZ076-079-302200-
INTERIOR SOUTHEAST MISSISSIPPI

CITY           SKY/WX    TMP DP  RH WIND       PRES   REMARKS
LEAKESVILLE*   NOT AVBL
AGRICOLA*      NOT AVBL

$$

MARINE OBSERVATIONS

STATION/POSITION TIME  TEMP    WIND        PRES    WAVE
                       AIR SEA DIR/SP/G            HT/PER
                 (UTC) (F)     (DEG/KT/KT) (MB)    (FT/S)
PASCAGOULA       2100   60     350/  8/ 11 1025.5F
PETIT BOIS ISLND 2100   57     360/  5/  7 1026.2S
GRAND BAY        2000   57      10/  9     1027.0S
KATRINA CUT      2000   58      60/  5     1026.4F
CEDAR POINT      2000   54      40/  9     1026.1R
E DAUPHIN ISLAND 2000   54     350/ 12/ 15 1025.6F
MIDDLE BAY LIGHT 2000   56     350/ 15     1024.7F
USCG MOBILE BAY  2100   58 55   30/ 10/ 13 1024.8S
STATE DOCKS      2100   58 51              1025.6R
MEAHER PARK      2000   59     340/  8     1026.1S
WEEKS BAY        2000   61                   N/A
FORT MORGAN      2100   56      10/ 16/ 18 1025.0F
12 S ORANGE BCH  2100   57 62  340/  6/  6 1024.8S   1/ 4
PENSACOLA BAY    2100   64 58  360/  8/ 14 1025.2R
64 S DAUPHIN ISL 1957   55 69   20/ 16/ 19 1025.7    5/ 6

$$

SELECTED LOCATIONS ACROSS THE REGION

CITY           SKY/WX    TMP DP  RH WIND       PRES   REMARKS
NEW ORLEANS    PTSUNNY   58  35  42 N8        30.33F
GULFPORT       PTSUNNY   62  29  28 N10       30.30F
PASCAGOULA AP  PTSUNNY   63  29  27 NE12G20   30.30S
PASCAGOULA*    NOT AVBL
HATTIESBURG    PTSUNNY   59  28  30 N8        30.33F
LAUREL         PTSUNNY   59  28  31 N12       30.34F
MERIDIAN       MOSUNNY   56  26  31 NE10      30.35S
JACKSON        PTSUNNY   57  28  33 N7        30.36F
MONTGOMERY     MOSUNNY   59  26  28 N9        30.31F
TROY           MOSUNNY   58  25  28 N16       30.29S
KINSTON*       NOT AVBL
GENEVA*        NOT AVBL
ASHFORD*         N/A    N/A N/A N/A N10       30.26F
DOTHAN         SUNNY     60  28  29 N12       30.28F
PANAMA CITY    PTSUNNY   62  31  31 N12       30.23S

$$



USA.gov is the U.S. government's official web portal to all federal, state and local government web resources and services.